107  
ASUS43 KIND 192209  
RWRIN  
 
WEATHER ROUNDUP FOR INDIANA  
NATIONAL WEATHER SERVICE INDIANAPOLIS IN  
600 PM EDT SUN MAY 19 2019  
 
NOTE: "FAIR" INDICATES FEW OR NO CLOUDS BELOW 12,000 FEET WITH NO  
SIGNIFICANT WEATHER AND/OR S TO VISIBILITY
.  
 
* - STATION DOES NOT REPORT WEATHER SUCH AS PRECIPITATION OR FOG.
 
 
+ - STATION NOT QUALITY CONTROLLED BY THE NATIONAL WEATHER SERVICE.  
USE DATA WITH CAUTION...ESPECIALLY DEWPOINT AND RELATIVE  
HUMIDITY OBSERVATIONS.  
 
INZ001>003-010>013-019-020-192300-  
NORTHWEST INDIANA  
 
CITY SKY/WX TMP DP RH WIND PRES REMARKS
 
GARY /AIRPORT/ MOSUNNY 75 54 46 W14G29 29.62R  
KNOX *+ FAIR 72 61 68 SE18G28 29.63S  
LA PORTE + PTSUNNY 72 62 70 SW20 29.64R  
MICHIGAN CITY+ FAIR 72 54 53 W9 29.63R  
MONTICELLO + FAIR 65 60 86 S13 29.68F  
RENSSELAER + PTSUNNY 73 59 60 S18G25 29.66R  
VALPARAISO FAIR 78 54 43 W21G35 29.63R  
 

 
 
LMZ046-743>745-192300-  
SOUTHERN LAKE MICHIGAN  
 
STATION/POSITION TIME TEMP WIND PRES WAVE
 
AIR SEA DIR/SP/G HT  
(UTC) (F) (DEG/KT/KT) (MB) (FT)  
BURNS HARBOR 2140 64 280/ 12/ 14 1003.4R  
MICHIGAN CITY 2140 62 210/ 13/ 14 N/A  
 

 
 
INZ004-005-014>016-021>024-192300-  
NORTH CENTRAL INDIANA  
 
CITY SKY/WX TMP DP RH WIND PRES REMARKS
 
ELKHART FAIR 68 64 88 S12G20 29.64R  
GOSHEN PTSUNNY 70 61 73 S16 29.65S  
PERU/GRISSOM TSTM 60 60 100 SW16 29.71R  
PLYMOUTH *+ SUNNY 72 72 100 S13G28 29.63S  
ROCHESTER + FAIR 68 54 60 SW17G30 29.68R  
SOUTH BEND CLOUDY 70 60 70 SW10G20 29.63S  
WARSAW + CLOUDY 68 61 77 S7G20 29.67S  
 

 
 
INZ006>009-017-018-025>027-192300-  
NORTHEAST INDIANA  
 
CITY SKY/WX TMP DP RH WIND PRES REMARKS
 
ANGOLA *+ PTSUNNY 66 61 82 S14 29.69S  
AUBURN + FAIR 66 61 82 S8G18 29.72S  
FORT WAYNE PTSUNNY 68 62 81 S15 29.73S  
HUNTINGTON + FAIR 68 63 83 S10G18 29.72F  
 

 
 
INZ028-029-035-036-043>045-051>053-192300-  
WEST CENTRAL INDIANA  
 
CITY SKY/WX TMP DP RH WIND PRES REMARKS
 
CRAWFORDSVL + FAIR 64 64 99 SW13 29.73F  
GREENCASTLE + FAIR 72 63 73 S7 29.74R  
LAFAYETTE FAIR 67 62 84 S9 29.70R  
TERRE HAUTE CLOUDY 66 63 90 S8 29.75R  
 

 
 
INZ030>032-037>040-046>048-054>057-064-065-192300-  
CENTRAL INDIANA  
 
CITY SKY/WX TMP DP RH WIND PRES REMARKS
 
COLUMBUS CLOUDY 72 64 78 S12G23 29.78F  
FRANKFORT + LGT RAIN 64 58 80 MISG 29.75R  
GREENWOOD *+ PTSUNNY 72 66 81 SW13G21 29.77S  
INDIANAPOLIS PTSUNNY 72 65 78 S14 29.74F  
-EAGLE CREEK PTSUNNY 73 64 73 S10G21 29.73F  
KOKOMO + PTSUNNY 66 59 77 W13G21 29.73S THUNDER  
MARION + PTSUNNY 70 68 96 S12G21 29.75F  
MT COMFORT *+ PTSUNNY 72 70 94 SW12 29.76F  
SHELBYVILLE PTSUNNY 74 66 76 S20G25 29.77F  
ZIONSVILLE + PTSUNNY 71 66 83 S12 29.74F  
 

 
 
INZ033-034-041-042-049-050-058-059-192300-  
EAST CENTRAL INDIANA  
 
CITY SKY/WX TMP DP RH WIND PRES REMARKS
 
MUNCIE FAIR 73 63 70 S15G26 29.75F  
PORTLAND + PTSUNNY 70 59 68 S15G24 29.76F  
RICHMOND + CLOUDY 64 64 100 S16 29.83S  
 

 
 
INZ060-061-067>069-081>083-085>088-192300-  
SOUTHWEST INDIANA  
 
CITY SKY/WX TMP DP RH WIND PRES REMARKS
 
EVANSVILLE FAIR 77 66 68 SW20G29 29.79S  
HUNTINGBURG + PTSUNNY 78 67 68 SW17G23 29.80S  
WASHINGTON + FAIR 78 65 63 SW16G28 29.76S  
 

 
 
INZ062-063-066-070>080-084-089>092-192300-  
SOUTH CENTRAL AND SOUTHEAST INDIANA  
 
CITY SKY/WX TMP DP RH WIND PRES REMARKS
 
BLOOMINGTON PTSUNNY 75 67 76 SW15 29.76S  
FRENCH LICK *+ PTSUNNY 75 64 69 SW10G21 29.80R  
JEFFERSONVL + FAIR 75 68 77 S13G22 29.83S  
MADISON *+ FAIR 73 68 83 S13G18 29.84S  
 

 
 
 
 
CLICK HERE TO GO TO PREVIOUS BULLETINS.

The Nexlab IN Page Main Text Page